カタログに戻る

ORBASTRO-TR2

運用中科学SSO
NORAD 59125·PAYLOAD·🇬🇧 United Kingdom
この衛星名は、まだ公式ソースで確認されていません。

打ち上げ Mar 4, 2024 から Vandenberg Space Force Base

Loading…

次のパス (今後24時間)

TLE

最新Source: Space-Track

元期: Sep 14, 2026, 08:12 UTC

1 59125U 24043AD  26257.34175239  .00006589  00000-0  18291-3 0  9993
2 59125  97.5771  40.9139 0007466 275.2593  84.7799 15.37235321140957

AllMySatでORBASTRO-TR2をリアルタイム追跡

Download on the App Store